EXPLORER 38 DEB, 3848

Orbit data source: Space-Track

EXPLORER 38 DEB, 3848 is space debris originally from a launch on Thu, 04 Jul 1968 UTC launched from the Air Force Western Test Range (AFWTR). Debris objects in space refer to the collection of defunct objects orbiting the Earth. Examples of debris include non-operational satellites, rocket bodies, and fragments generated from explosions, collisions, or faulty payload assembly.

Loading next visibility...
Identifier
3848, 1968-055C
Orbit
Active
Last TLE update
9 months ago
Origin
Manufacturer
Thiokol/TE
Mission
Spacecraft
Bus & Motor
STAR 17, Unknown motor
Mass
79 kg wet, 10 kg dry
Launch date (UTC)
1968-07-04 (57 years ago)
Launch vehicle
Unknown
Launch site
Air Force Western Test Range (AFWTR)
Object type
Payload
Rocket body
Debris
Shape & HBR
Sphere + Cone, 0.7 m
Radar Cross Section
0.281 m², Medium (>0.1 m² and < 1m²)

Expand to show TLE details & history

TLE from 9 months ago
0 EXPLORER 38 DEB
1 03848U 68055C   24226.29490897 -.00000010  00000-0  00000-0 0  9993
2 03848 120.8322 182.0702 0017060 226.2182 133.7008  6.42500615216819
Epoch: 2024-08-13T07:04Z
Definitive object data (Epoch: 2024-08-13T07:04:40.135Z)
Latitude
-0.00001°
Longitude
113.68901°
Altitude
5,859.44 km
Speed
5.704 km/s
True Right ascension
12h 08m 16s
True Declination
0° 00' 00"
Sunlit
Object was in daylight at TLE epoch
Visualization TLE readout
Latitude
58.23941°
Longitude
-178.94099°
Altitude
5,873.464 km
Speed
5.703 km/s
Apparent Right ascension
16h 57m 21s
Apparent Declination
29° 13' 37"
Sunlit
Object is in daylight
Visualization observer readout
Local Sidereal Time
05:23:12
Azimuth
6.025° NNE
Elevation
-20.596°
Doppler factor
1
Orbital elements
Apogee altitude
5,864.636 km
Perigee altitude
5,822.934 km
Semi-major axis
12,221.922 km
Eccentricity
0.001706
Inclination
120.8322°
RAAN
182.0702°
Arg. of periapsis
226.2182°
True anomaly
133.84193°
Mean anomaly
133.7008°
Eccentric anomaly
133.77138°
Mean motion
1.60633 °/min
BSTAR
Unknown
Orbital period
224.11 mins
Loading maneuver chart data...
Loading SW <> Apogee altitude chart data...
Loading historical data...
Loading historical data...
Loading historical data...
Loading historical data...
Loading historical data...
Loading historical data...
Loading historical data...

EXPLORER 38 DEB Visibility forecast

Observer location: undefined°, undefined°

Span
Click to sort rows by Start time (UTC) header in descending order
Start Az.
Max El. time (UTC)
Max El. Az.
Max El.
End time (UTC)
End Az.
54 mins2025-05-10 01:07:57.342Z43.107° NE2025-05-10 01:35:57.342Z124.815° SE39.737°2025-05-10 02:01:57.342Z198.616° SSW
52 mins2025-05-10 04:35:57.342Z45.77° ENE2025-05-10 05:01:57.342Z330.773° NNW42.213°2025-05-10 05:27:57.342Z258.652° W
50 mins2025-05-10 07:57:57.342Z79.321° E2025-05-10 08:21:57.342Z13.503° NNE39.141°2025-05-10 08:47:57.342Z304.275° NW
55 mins2025-05-10 11:18:57.342Z137.308° SSE2025-05-10 11:45:57.342Z237.741° WSW44.753°2025-05-10 12:13:57.342Z319.121° NNW
34 mins2025-05-10 14:59:57.342Z212.674° SW2025-05-10 15:15:57.342Z252.291° W19.058°2025-05-10 15:33:57.342Z296.015° NW
|